| time (UTC) | temp F | wind direction | speed MPH | gust MPH | rain 1hr in | rain 24hr in | rain mn in | humidity % | barometer mb |
| 20260505021958 | 56 | 8 | 0.0 | 2.0 | 0.00 | 0.00 | 0.00 | 50 | 922.5 |
| 20260505021454 | 56 | 310 | 2.0 | 2.0 | 0.00 | 0.00 | 0.00 | 49 | 922.5 |
| 20260505020949 | 56 | 288 | 0.0 | 5.0 | 0.00 | 0.00 | 0.00 | 49 | 922.8 |
| 20260505020445 | 57 | 355 | 0.0 | 5.0 | 0.00 | 0.00 | 0.00 | 48 | 922.4 |
| 20260505015942 | 58 | 350 | 0.0 | 0.0 | 0.00 | 0.00 | 0.00 | 47 | 922.3 |
| 20260505015439 | 57 | 317 | 0.0 | 5.0 | 0.00 | 0.00 | 0.00 | 47 | 922.5 |
| 20260505014937 | 57 | 359 | 0.0 | 3.0 | 0.00 | 0.00 | 0.00 | 47 | 922.3 |
| 20260505014433 | 58 | 334 | 0.0 | 2.0 | 0.00 | 0.00 | 0.00 | 47 | 922.4 |
| 20260505013930 | 58 | 283 | 3.0 | 6.0 | 0.00 | 0.00 | 0.00 | 47 | 922.7 |
| 20260505013427 | 58 | 256 | 5.0 | 6.0 | 0.00 | 0.00 | 0.00 | 46 | 922.5 |
| 20260505012925 | 58 | 271 | 6.0 | 8.0 | 0.00 | 0.00 | 0.00 | 46 | 922.1 |
| 20260505012423 | 59 | 272 | 9.0 | 11.0 | 0.00 | 0.00 | 0.00 | 45 | 922.5 |
| 20260505011919 | 59 | 194 | 5.0 | 7.0 | 0.00 | 0.00 | 0.00 | 45 | 922.5 |
| 20260505011416 | 59 | 263 | 7.0 | 10.0 | 0.00 | 0.00 | 0.00 | 45 | 922.7 |
| 20260505010912 | 59 | 207 | 5.0 | 13.0 | 0.00 | 0.00 | 0.00 | 45 | 923.0 |
| 20260505010408 | 60 | 224 | 9.0 | 14.0 | 0.00 | 0.00 | 0.00 | 44 | 923.0 |
| 20260505005904 | 60 | 240 | 9.0 | 14.0 | 0.00 | 0.00 | 0.00 | 43 | 923.2 |
| 20260505005401 | 61 | 210 | 7.0 | 20.0 | 0.00 | 0.00 | 0.00 | 42 | 923.2 |
| 20260505004859 | 61 | 275 | 6.0 | 18.0 | 0.00 | 0.00 | 0.00 | 41 | 923.1 |
| 20260505004355 | 62 | 246 | 6.0 | 16.0 | 0.00 | 0.00 | 0.00 | 41 | 923.1 |
| 20260505003852 | 62 | 209 | 8.0 | 16.0 | 0.00 | 0.00 | 0.00 | 39 | 922.9 |
| 20260505003349 | 62 | 260 | 10.0 | 18.0 | 0.00 | 0.00 | 0.00 | 39 | 923.0 |
| 20260505002845 | 62 | 241 | 7.0 | 21.0 | 0.00 | 0.00 | 0.00 | 40 | 923.0 |
| 20260505002342 | 63 | 247 | 14.0 | 20.0 | 0.00 | 0.00 | 0.00 | 38 | 922.8 |
| 20260505001841 | 64 | 261 | 7.0 | 20.0 | 0.00 | 0.00 | 0.00 | 38 | 922.7 |
| 20260505001337 | 64 | 223 | 6.0 | 18.0 | 0.00 | 0.00 | 0.00 | 36 | 922.7 |
| 20260505000835 | 65 | 256 | 11.0 | 21.0 | 0.00 | 0.00 | 0.00 | 36 | 922.5 |
| 20260505000332 | 67 | 264 | 5.0 | 10.0 | 0.00 | 0.00 | 0.00 | 29 | 922.7 |
| 20260504235829 | 66 | 297 | 5.0 | 13.0 | 0.00 | 0.00 | 0.00 | 30 | 922.5 |
| 20260504235326 | 66 | 263 | 8.0 | 15.0 | 0.00 | 0.00 | 0.00 | 30 | 922.4 |
| 20260504234822 | 66 | 316 | 9.0 | 11.0 | 0.00 | 0.00 | 0.00 | 28 | 922.7 |
| 20260504234320 | 66 | 136 | 6.0 | 11.0 | 0.00 | 0.00 | 0.00 | 28 | 922.7 |
| 20260504233816 | 67 | 217 | 4.0 | 10.0 | 0.00 | 0.00 | 0.00 | 28 | 922.5 |
| 20260504233312 | 67 | 265 | 5.0 | 11.0 | 0.00 | 0.00 | 0.00 | 28 | 922.5 |
| 20260504232809 | 66 | 257 | 7.0 | 10.0 | 0.00 | 0.00 | 0.00 | 27 | 922.4 |
| 20260504232306 | 67 | 129 | 0.0 | 5.0 | 0.00 | 0.00 | 0.00 | 27 | 922.5 |
| 20260504231803 | 68 | 0 | 1.0 | 9.0 | 0.00 | 0.00 | 0.00 | 27 | 922.7 |
| 20260504231259 | 68 | 299 | 1.0 | 6.0 | 0.00 | 0.00 | 0.00 | 27 | 922.9 |
| 20260504230755 | 68 | 294 | 2.0 | 11.0 | 0.00 | 0.00 | 0.00 | 26 | 922.8 |
| 20260504230254 | 68 | 289 | 2.0 | 8.0 | 0.00 | 0.00 | 0.00 | 27 | 922.5 |
| 20260504225752 | 68 | 311 | 0.0 | 1.0 | 0.00 | 0.00 | 0.00 | 25 | 922.7 |
| 20260504225248 | 66 | 317 | 0.0 | 10.0 | 0.00 | 0.00 | 0.00 | 27 | 922.7 |
| 20260504224745 | 66 | 352 | 0.0 | 3.0 | 0.00 | 0.00 | 0.00 | 26 | 922.8 |
| 20260504224243 | 66 | 51 | 0.0 | 9.0 | 0.00 | 0.00 | 0.00 | 27 | 922.9 |
| 20260504223739 | 66 | 226 | 7.0 | 10.0 | 0.00 | 0.00 | 0.00 | 27 | 922.9 |
| 20260504223235 | 66 | 265 | 11.0 | 13.0 | 0.00 | 0.00 | 0.00 | 28 | 922.8 |
| 20260504222732 | 68 | 309 | 7.0 | 11.0 | 0.00 | 0.00 | 0.00 | 27 | 922.8 |
| 20260504222228 | 69 | 203 | 7.0 | 11.0 | 0.00 | 0.00 | 0.00 | 27 | 923.0 |
| 20260504221726 | 69 | 129 | 2.0 | 11.0 | 0.00 | 0.00 | 0.00 | 26 | 922.9 |
| 20260504221223 | 67 | 356 | 6.0 | 8.0 | 0.00 | 0.00 | 0.00 | 26 | 923.0 |
| 20260504220719 | 67 | 358 | 7.0 | 14.0 | 0.00 | 0.00 | 0.00 | 26 | 923.0 |
| 20260504220217 | 68 | 294 | 8.0 | 14.0 | 0.00 | 0.00 | 0.00 | 27 | 923.2 |
| 20260504215714 | 66 | 269 | 3.0 | 14.0 | 0.00 | 0.00 | 0.00 | 26 | 923.2 |
| 20260504215211 | 67 | 315 | 3.0 | 8.0 | 0.00 | 0.00 | 0.00 | 26 | 923.1 |
| 20260504214706 | 67 | 315 | 5.0 | 13.0 | 0.00 | 0.00 | 0.00 | 27 | 923.5 |
| 20260504214203 | 66 | 341 | 1.0 | 11.0 | 0.00 | 0.00 | 0.00 | 29 | 923.1 |
| 20260504213700 | 66 | 318 | 3.0 | 10.0 | 0.00 | 0.00 | 0.00 | 28 | 923.1 |
| 20260504213156 | 65 | 282 | 5.0 | 11.0 | 0.00 | 0.00 | 0.00 | 31 | 923.1 |
| 20260504212653 | 67 | 206 | 12.0 | 16.0 | 0.00 | 0.00 | 0.00 | 30 | 923.5 |
| 20260504212150 | 66 | 265 | 8.0 | 14.0 | 0.00 | 0.00 | 0.00 | 29 | 923.7 |
| 20260504211647 | 66 | 290 | 9.0 | 18.0 | 0.00 | 0.00 | 0.00 | 28 | 923.7 |
| 20260504211143 | 66 | 281 | 13.0 | 30.0 | 0.00 | 0.00 | 0.00 | 29 | 923.7 |
| 20260504210641 | 69 | 295 | 10.0 | 16.0 | 0.00 | 0.00 | 0.00 | 27 | 923.5 |
| 20260504210137 | 68 | 217 | 5.0 | 9.0 | 0.00 | 0.00 | 0.00 | 27 | 923.6 |
| 20260504205635 | 66 | 288 | 1.0 | 7.0 | 0.00 | 0.00 | 0.00 | 27 | 923.7 |
| 20260504205132 | 66 | 323 | 9.0 | 11.0 | 0.00 | 0.00 | 0.00 | 27 | 923.5 |
| 20260504204631 | 66 | 351 | 6.0 | 14.0 | 0.00 | 0.00 | 0.00 | 27 | 923.7 |
| 20260504204129 | 65 | 327 | 2.0 | 11.0 | 0.00 | 0.00 | 0.00 | 28 | 923.7 |
| 20260504203628 | 65 | 326 | 5.0 | 14.0 | 0.00 | 0.00 | 0.00 | 28 | 923.9 |
| 20260504203125 | 66 | 303 | 7.0 | 15.0 | 0.00 | 0.00 | 0.00 | 27 | 923.8 |
| 20260504202625 | 67 | 30 | 7.0 | 9.0 | 0.00 | 0.00 | 0.00 | 25 | 924.0 |
| 20260504202122 | 66 | 61 | 1.0 | 6.0 | 0.00 | 0.00 | 0.00 | 27 | 924.0 |
| 20260504201619 | 64 | 255 | 3.0 | 6.0 | 0.00 | 0.00 | 0.00 | 29 | 924.3 |
| 20260504201117 | 63 | 4 | 2.0 | 10.0 | 0.00 | 0.00 | 0.00 | 29 | 923.9 |
| 20260504200614 | 63 | 358 | 2.0 | 8.0 | 0.00 | 0.00 | 0.00 | 29 | 924.1 |
| 20260504200110 | 64 | 327 | 6.0 | 10.0 | 0.00 | 0.00 | 0.00 | 30 | 924.0 |
| 20260504195606 | 64 | 294 | 7.0 | 14.0 | 0.00 | 0.00 | 0.00 | 30 | 923.9 |
| 20260504195103 | 64 | 345 | 7.0 | 15.0 | 0.00 | 0.00 | 0.00 | 29 | 923.9 |
| 20260504194600 | 65 | 338 | 10.0 | 20.0 | 0.00 | 0.00 | 0.00 | 29 | 923.9 |
| 20260504194055 | 66 | 342 | 6.0 | 7.0 | 0.00 | 0.00 | 0.00 | 26 | 924.1 |
| 20260504193552 | 66 | 268 | 1.0 | 3.0 | 0.00 | 0.00 | 0.00 | 25 | 924.1 |
| 20260504193050 | 65 | 39 | 0.0 | 0.0 | 0.00 | 0.00 | 0.00 | 26 | 924.4 |
| 20260504192548 | 66 | 34 | 5.0 | 8.0 | 0.00 | 0.00 | 0.00 | 27 | 924.4 |
| 20260504192046 | 66 | 32 | 0.0 | 5.0 | 0.00 | 0.00 | 0.00 | 28 | 924.4 |
| 20260504191544 | 65 | 67 | 7.0 | 10.0 | 0.00 | 0.00 | 0.00 | 27 | 924.7 |
| 20260504191040 | 65 | 84 | 3.0 | 11.0 | 0.00 | 0.00 | 0.00 | 28 | 924.6 |
| 20260504190536 | 65 | 73 | 4.0 | 11.0 | 0.00 | 0.00 | 0.00 | 33 | 924.7 |
| 20260504190032 | 64 | 34 | 12.0 | 16.0 | 0.00 | 0.00 | 0.00 | 33 | 924.7 |
| 20260504185530 | 63 | 22 | 7.0 | 13.0 | 0.00 | 0.00 | 0.00 | 35 | 924.7 |
| 20260504185026 | 63 | 42 | 5.0 | 14.0 | 0.00 | 0.00 | 0.00 | 35 | 924.8 |
| 20260504184521 | 61 | 56 | 7.0 | 17.0 | 0.00 | 0.00 | 0.00 | 38 | 924.7 |
| 20260504184017 | 60 | 42 | 13.0 | 16.0 | 0.00 | 0.00 | 0.00 | 35 | 924.7 |
| 20260504183514 | 60 | 34 | 12.0 | 17.0 | 0.00 | 0.00 | 0.00 | 36 | 924.6 |
| 20260504183013 | 60 | 40 | 5.0 | 15.0 | 0.00 | 0.00 | 0.00 | 35 | 924.7 |
| 20260504182509 | 60 | 33 | 9.0 | 15.0 | 0.00 | 0.00 | 0.00 | 33 | 924.7 |
| 20260504182006 | 60 | 6 | 7.0 | 17.0 | 0.00 | 0.00 | 0.00 | 33 | 924.6 |
| 20260504181503 | 63 | 1 | 9.0 | 14.0 | 0.00 | 0.00 | 0.00 | 31 | 924.6 |
| 20260504181002 | 64 | 324 | 4.0 | 8.0 | 0.00 | 0.00 | 0.00 | 29 | 924.5 |
| 20260504180500 | 65 | 349 | 9.0 | 11.0 | 0.00 | 0.00 | 0.00 | 28 | 924.4 |
| 20260504175958 | 66 | 177 | 0.0 | 6.0 | 0.00 | 0.00 | 0.00 | 28 | 924.5 |
| 20260504175455 | 67 | 194 | 3.0 | 11.0 | 0.00 | 0.00 | 0.00 | 28 | 924.6 |
| 20260504174952 | 67 | 83 | 1.0 | 8.0 | 0.00 | 0.00 | 0.00 | 28 | 924.6 |
| 20260504174450 | 68 | 153 | 8.0 | 14.0 | 0.00 | 0.00 | 0.00 | 28 | 924.7 |
| 20260504173947 | 68 | 145 | 1.0 | 8.0 | 0.00 | 0.00 | 0.00 | 29 | 924.9 |
| 20260504173438 | 67 | 219 | 5.0 | 10.0 | 0.00 | 0.00 | 0.00 | 30 | 925.2 |
| 20260504172936 | 67 | 299 | 3.0 | 7.0 | 0.00 | 0.00 | 0.00 | 29 | 925.3 |
| 20260504172432 | 66 | 248 | 6.0 | 7.0 | 0.00 | 0.00 | 0.00 | 30 | 925.1 |
| 20260504171929 | 65 | 223 | 5.0 | 11.0 | 0.00 | 0.00 | 0.00 | 32 | 925.4 |
| 20260504171426 | 65 | 277 | 2.0 | 7.0 | 0.00 | 0.00 | 0.00 | 30 | 925.1 |
| 20260504170923 | 65 | 272 | 5.0 | 7.0 | 0.00 | 0.00 | 0.00 | 31 | 925.1 |
| 20260504170419 | 66 | 233 | 0.0 | 1.0 | 0.00 | 0.00 | 0.00 | 30 | 924.9 |
| 20260504160338 | 60 | 356 | 1.0 | 8.0 | 0.00 | 0.00 | 0.00 | 35 | 925.4 |
| 20260504150803 | 56 | 115 | 2.0 | 5.0 | 0.00 | 0.00 | 0.00 | 38 | 926.0 |
| 20260504150259 | 56 | 89 | 1.0 | 5.0 | 0.00 | 0.00 | 0.00 | 38 | 925.9 |
| 20260504141229 | 47 | 106 | 3.0 | 3.0 | 0.00 | 0.00 | 0.00 | 54 | 926.3 |
| 20260504140725 | 46 | 89 | 2.0 | 2.0 | 0.00 | 0.00 | 0.00 | 55 | 926.2 |
| 20260504140220 | 43 | 94 | 2.0 | 3.0 | 0.00 | 0.00 | 0.00 | 58 | 926.3 |
| 20260504130650 | 38 | 113 | 3.0 | 5.0 | 0.00 | 0.00 | 0.00 | 66 | 925.9 |
| 20260504130146 | 37 | 98 | 3.0 | 3.0 | 0.00 | 0.00 | 0.00 | 67 | 925.7 |
| 20260504120110 | 35 | 61 | 0.0 | 1.0 | 0.00 | 0.00 | 0.00 | 71 | 925.4 |
| 20260504110537 | 36 | 119 | 0.0 | 3.0 | 0.00 | 0.00 | 0.00 | 69 | 925.4 |
| 20260504100459 | 36 | 105 | 3.0 | 5.0 | 0.00 | 0.00 | 0.00 | 67 | 925.4 |
| 20260504081852 | 41 | 148 | 3.0 | 5.0 | 0.00 | 0.00 | 0.00 | 57 | 926.1 |
| 20260504081349 | 41 | 166 | 5.0 | 7.0 | 0.00 | 0.00 | 0.00 | 58 | 926.2 |
| 20260504080844 | 42 | 123 | 4.0 | 7.0 | 0.00 | 0.00 | 0.00 | 58 | 926.3 |
| 20260504080342 | 42 | 131 | 4.0 | 5.0 | 0.00 | 0.00 | 0.00 | 59 | 926.3 |
| 20260504070309 | 43 | 114 | 3.0 | 5.0 | 0.00 | 0.00 | 0.00 | 57 | 926.5 |
| 20260504060230 | 43 | 146 | 5.0 | 7.0 | 0.00 | 0.00 | 0.00 | 57 | 926.8 |
| 20260504050657 | 44 | 124 | 3.0 | 5.0 | 0.00 | 0.00 | 0.00 | 53 | 926.8 |
| 20260504050154 | 45 | 127 | 4.0 | 5.0 | 0.00 | 0.00 | 0.00 | 51 | 927.0 |
| 20260504045652 | 45 | 124 | 5.0 | 6.0 | 0.00 | 0.00 | 0.00 | 51 | 926.7 |
| 20260504045151 | 45 | 124 | 4.0 | 7.0 | 0.00 | 0.00 | 0.00 | 50 | 926.9 |
| 20260504044649 | 45 | 132 | 5.0 | 8.0 | 0.00 | 0.00 | 0.00 | 49 | 926.9 |
| 20260504044146 | 46 | 133 | 5.0 | 7.0 | 0.00 | 0.00 | 0.00 | 49 | 927.0 |
| 20260504043643 | 46 | 138 | 6.0 | 7.0 | 0.00 | 0.00 | 0.00 | 47 | 927.0 |
| 20260504043140 | 46 | 128 | 6.0 | 8.0 | 0.00 | 0.00 | 0.00 | 47 | 927.1 |
| 20260504042638 | 47 | 138 | 3.0 | 3.0 | 0.00 | 0.00 | 0.00 | 46 | 927.2 |
| 20260504042134 | 47 | 125 | 2.0 | 3.0 | 0.00 | 0.00 | 0.00 | 46 | 927.1 |
| 20260504041630 | 48 | 125 | 2.0 | 5.0 | 0.00 | 0.00 | 0.00 | 44 | 926.8 |
| 20260504041126 | 48 | 132 | 0.0 | 0.0 | 0.00 | 0.00 | 0.00 | 44 | 926.9 |
| 20260504040624 | 48 | 118 | 0.0 | 0.0 | 0.00 | 0.00 | 0.00 | 43 | 926.7 |
| 20260504040120 | 49 | 137 | 0.0 | 0.0 | 0.00 | 0.00 | 0.00 | 43 | 926.8 |
| 20260504035617 | 49 | 100 | 0.0 | 0.0 | 0.00 | 0.00 | 0.00 | 43 | 926.8 |
| 20260504035114 | 49 | 108 | 0.0 | 0.0 | 0.00 | 0.00 | 0.00 | 44 | 926.9 |
| 20260504034612 | 50 | 103 | 0.0 | 0.0 | 0.00 | 0.00 | 0.00 | 44 | 926.8 |
| 20260504034108 | 51 | 123 | 0.0 | 0.0 | 0.00 | 0.00 | 0.00 | 43 | 926.9 |
| 20260504033606 | 51 | 74 | 0.0 | 0.0 | 0.00 | 0.00 | 0.00 | 41 | 926.8 |
| 20260504033103 | 52 | 74 | 0.0 | 0.0 | 0.00 | 0.00 | 0.00 | 39 | 926.7 |
| 20260504032600 | 52 | 76 | 0.0 | 0.0 | 0.00 | 0.00 | 0.00 | 38 | 926.5 |
| 20260504032057 | 52 | 70 | 0.0 | 0.0 | 0.00 | 0.00 | 0.00 | 35 | 926.7 |
| 20260504031554 | 54 | 82 | 0.0 | 0.0 | 0.00 | 0.00 | 0.00 | 34 | 926.7 |
| 20260504031050 | 54 | 83 | 0.0 | 0.0 | 0.00 | 0.00 | 0.00 | 33 | 926.5 |
| 20260504030548 | 54 | 104 | 0.0 | 0.0 | 0.00 | 0.00 | 0.00 | 32 | 926.3 |
| 20260504030043 | 53 | 80 | 0.0 | 0.0 | 0.00 | 0.00 | 0.00 | 35 | 926.3 |
| 20260504025541 | 54 | 100 | 0.0 | 0.0 | 0.00 | 0.00 | 0.00 | 34 | 926.4 |
| 20260504025037 | 56 | 88 | 3.0 | 5.0 | 0.00 | 0.00 | 0.00 | 34 | 926.3 |
| 20260504024535 | 57 | 43 | 0.0 | 0.0 | 0.00 | 0.00 | 0.00 | 33 | 926.4 |
| 20260504024031 | 57 | 41 | 0.0 | 0.0 | 0.00 | 0.00 | 0.00 | 31 | 926.4 |
| 20260504023528 | 58 | 11 | 0.0 | 0.0 | 0.00 | 0.00 | 0.00 | 31 | 926.4 |
| 20260504023024 | 59 | 20 | 0.0 | 0.0 | 0.00 | 0.00 | 0.00 | 30 | 926.1 |
| 20260504022520 | 59 | 17 | 0.0 | 0.0 | 0.00 | 0.00 | 0.00 | 29 | 926.3 |